WA7GL-10 Weather Reports


Display with metric or nautical units.
time (UTC)temp
F
wind
direction
speed
MPH
gust
MPH
rain 1hr
in
rain 24hr
in
rain mn
in
humidity
%
barometer
mb
20260505230559 66 346 1.0 4.0 0.00 0.00 0.00 74 1015.4
20260505230055 65 183 0.0 4.0 0.00 0.00 0.00 75 1015.4
20260505225554 65 353 0.0 3.0 0.00 0.00 0.00 76 1015.5
20260505225054 65 330 0.0 6.0 0.00 0.00 0.00 74 1015.5
20260505224554 65 348 3.0 6.0 0.00 0.00 0.00 74 1015.6
20260505224054 65 321 0.0 3.0 0.00 0.00 0.00 76 1015.6
20260505223554 64 321 1.0 3.0 0.00 0.00 0.00 75 1015.6
20260505223103 65 354 1.0 3.0 0.00 0.00 0.00 71 1015.6
20260505222552 66 232 0.0 4.0 0.00 0.00 0.00 75 1015.7
20260505222051 65 326 2.0 4.0 0.00 0.00 0.00 75 1015.8
20260505221557 64 326 1.0 4.0 0.00 0.00 0.00 75 1015.9
20260505221050 64 321 1.0 4.0 0.00 0.00 0.00 75 1016.0
20260505220549 64 357 1.0 4.0 0.00 0.00 0.00 74 1016.0
20260505220052 64 326 0.0 3.0 0.00 0.00 0.00 75 1016.1
20260505215549 64 323 1.0 3.0 0.00 0.00 0.00 73 1016.1
20260505215049 64 219 0.0 3.0 0.00 0.00 0.00 74 1016.2
20260505214612 65 236 1.0 4.0 0.00 0.00 0.00 76 1016.2
20260505214049 65 322 2.0 4.0 0.00 0.00 0.00 73 1016.2
20260505213550 64 232 0.0 4.0 0.00 0.00 0.00 79 1016.1
20260505213046 64 323 1.0 5.0 0.00 0.00 0.00 77 1016.2
20260505212545 63 330 1.0 5.0 0.00 0.00 0.00 76 1016.3
20260505212045 63 328 0.0 6.0 0.00 0.00 0.00 77 1016.3
20260505211544 63 333 2.0 5.0 0.00 0.00 0.00 78 1016.3
20260505211044 62 221 0.0 4.0 0.00 0.00 0.00 78 1016.4
20260505210542 62 148 0.0 4.0 0.00 0.00 0.00 76 1016.4
20260505210044 62 147 0.0 4.0 0.00 0.00 0.00 79 1016.5
20260505205542 61 224 0.0 4.0 0.00 0.00 0.00 77 1016.5
20260505205041 61 318 0.0 3.0 0.00 0.00 0.00 78 1016.5
20260505204540 61 328 0.0 4.0 0.00 0.00 0.00 79 1016.5
20260505204040 61 319 0.0 4.0 0.00 0.00 0.00 79 1016.6
20260505203540 61 356 0.0 2.0 0.00 0.00 0.00 78 1016.5
20260505203040 61 328 0.0 2.0 0.00 0.00 0.00 77 1016.6
20260505202540 61 226 0.0 2.0 0.00 0.00 0.00 79 1016.6
20260505202040 61 325 0.0 2.0 0.00 0.00 0.00 78 1016.6
20260505201540 61 326 0.0 5.0 0.00 0.00 0.00 77 1016.6
20260505201039 61 335 1.0 5.0 0.00 0.00 0.00 78 1016.6
20260505200540 61 326 2.0 4.0 0.00 0.00 0.00 79 1016.6
20260505200045 61 321 1.0 4.0 0.00 0.00 0.00 77 1016.5
20260505195537 61 212 0.0 3.0 0.00 0.00 0.00 80 1016.6
20260505195037 60 327 0.0 3.0 0.00 0.00 0.00 79 1016.7
20260505194536 60 1 0.0 3.0 0.00 0.00 0.00 78 1016.7
20260505194036 60 250 0.0 3.0 0.00 0.00 0.00 80 1016.7
20260505193538 60 237 0.0 1.0 0.00 0.00 0.00 80 1016.7
20260505193037 60 298 0.0 1.0 0.00 0.00 0.00 79 1016.7
20260505192536 60 298 0.0 1.0 0.00 0.00 0.00 80 1016.8
20260505192033 60 318 0.0 2.0 0.00 0.00 0.00 80 1016.8
20260505191533 59 318 0.0 3.0 0.00 0.00 0.00 80 1016.8
20260505191032 59 333 1.0 3.0 0.00 0.00 0.00 80 1016.8
20260505190534 59 322 1.0 2.0 0.00 0.00 0.00 79 1016.7
20260505190031 59 10 0.0 3.0 0.00 0.00 0.00 81 1016.7
20260505185530 59 325 0.0 3.0 0.00 0.00 0.00 81 1016.7
20260505185033 59 325 0.0 4.0 0.00 0.00 0.00 80 1016.6
20260505184530 59 270 0.0 2.0 0.00 0.00 0.00 80 1016.6
20260505184031 59 329 0.0 2.0 0.00 0.00 0.00 80 1016.6
20260505183528 59 303 0.0 2.0 0.00 0.00 0.00 81 1016.6
20260505183033 59 205 1.0 2.0 0.00 0.00 0.00 81 1016.6
20260505182527 59 208 0.0 3.0 0.00 0.00 0.00 80 1016.5
20260505182026 59 357 1.0 3.0 0.00 0.00 0.00 80 1016.4
20260505181526 59 236 0.0 2.0 0.00 0.00 0.00 82 1016.5
20260505181026 58 136 0.0 4.0 0.00 0.00 0.00 82 1016.5
20260505180524 58 198 0.0 4.0 0.00 0.00 0.00 81 1016.5
20260505180024 58 228 0.0 3.0 0.00 0.00 0.00 81 1016.4
20260505175523 58 205 2.0 3.0 0.00 0.00 0.00 81 1016.4
20260505175025 58 217 0.0 5.0 0.00 0.00 0.00 81 1016.4
20260505174523 58 159 3.0 5.0 0.00 0.00 0.00 80 1016.4
20260505174022 58 210 0.0 2.0 0.00 0.00 0.00 81 1016.3
20260505173524 58 150 0.0 2.0 0.00 0.00 0.00 80 1016.4
20260505173022 58 205 0.0 2.0 0.00 0.00 0.00 81 1016.4
20260505172519 57 147 0.0 3.0 0.00 0.00 0.00 82 1016.4
20260505172019 57 158 1.0 3.0 0.00 0.00 0.00 81 1016.4
20260505171518 57 205 0.0 1.0 0.00 0.00 0.00 81 1016.3
20260505171020 57 203 0.0 5.0 0.00 0.00 0.00 81 1016.3
20260505170517 57 200 2.0 5.0 0.00 0.00 0.00 82 1016.3
20260505170021 57 201 0.0 4.0 0.00 0.00 0.00 82 1016.2
20260505165517 57 200 1.0 4.0 0.00 0.00 0.00 82 1016.1
20260505165019 57 144 2.0 4.0 0.00 0.00 0.00 82 1016.2
20260505164517 57 143 0.0 3.0 0.00 0.00 0.00 83 1016.2
20260505164017 57 143 1.0 3.0 0.00 0.00 0.00 83 1016.3
20260505163516 57 221 0.0 3.0 0.00 0.00 0.00 83 1016.3
20260505163018 56 177 0.0 3.0 0.00 0.00 0.00 84 1016.3
20260505162514 56 200 1.0 3.0 0.00 0.00 0.00 82 1016.3
20260505162013 56 190 0.0 3.0 0.00 0.00 0.00 84 1016.3
20260505161517 56 160 1.0 3.0 0.00 0.00 0.00 83 1016.2
20260505161015 56 164 1.0 3.0 0.00 0.00 0.00 83 1016.3
20260505160514 56 138 0.0 2.0 0.00 0.00 0.00 84 1016.3
20260505153006 55 155 0.0 3.0 0.00 0.00 0.00 86 1016.3
20260505152506 55 196 1.0 3.0 0.00 0.00 0.00 86 1016.3
20260505152008 55 204 0.0 2.0 0.00 0.00 0.00 86 1016.3
20260505151505 54 217 0.0 3.0 0.00 0.00 0.00 86 1016.3
20260505151004 54 155 0.0 3.0 0.00 0.00 0.00 86 1016.3
20260505150503 54 224 0.0 3.0 0.00 0.00 0.00 87 1016.2
20260505140557 53 211 0.0 1.0 0.00 0.00 0.00 88 1015.8
20260505140113 53 195 0.0 1.0 0.00 0.00 0.00 88 1015.8
20260505124549 53 158 0.0 2.0 0.00 0.00 0.00 86 1015.3
20260505124047 53 174 0.0 4.0 0.00 0.00 0.00 86 1015.2
20260505123547 53 162 1.0 4.0 0.00 0.00 0.00 87 1015.2
20260505123052 53 154 0.0 1.0 0.00 0.00 0.00 87 1015.2
20260505122547 53 132 0.0 1.0 0.00 0.00 0.00 87 1015.1
20260505122047 53 132 0.0 0.0 0.00 0.00 0.00 87 1015.1
20260505121547 53 132 0.0 0.0 0.00 0.00 0.00 87 1015.1
20260505121047 53 132 0.0 0.0 0.00 0.00 0.00 87 1015.2
20260505120546 53 132 0.0 0.0 0.00 0.00 0.00 87 1015.1
20260505120051 53 132 0.0 1.0 0.00 0.00 0.00 87 1015.1
20260505115545 53 131 0.0 0.0 0.00 0.00 0.00 87 1015.1
20260505115046 53 131 0.0 0.0 0.00 0.00 0.00 87 1015.1
20260505114556 53 131 0.0 0.0 0.00 0.00 0.00 87 1015.1
20260505114044 53 131 0.0 0.0 0.00 0.00 0.00 87 1015.2
20260505113547 53 131 0.0 0.0 0.00 0.00 0.00 86 1015.2
20260505113052 53 131 0.0 0.0 0.00 0.00 0.00 87 1015.2
20260505112544 53 131 0.0 1.0 0.00 0.00 0.00 86 1015.2
20260505112044 53 131 0.0 0.0 0.00 0.00 0.00 86 1015.2
20260505111544 53 131 0.0 0.0 0.00 0.00 0.00 86 1015.2
20260505111045 53 131 0.0 2.0 0.00 0.00 0.00 86 1015.2
20260505110544 53 131 0.0 2.0 0.00 0.00 0.00 86 1015.2
20260505102040 53 214 0.0 2.0 0.00 0.00 0.00 87 1014.9
20260505101549 53 204 0.0 3.0 0.00 0.00 0.00 87 1014.8
20260505101038 53 208 0.0 3.0 0.00 0.00 0.00 87 1014.8
20260505100538 53 192 0.0 3.0 0.00 0.00 0.00 87 1014.7
20260505100038 53 145 0.0 1.0 0.00 0.00 0.00 87 1014.7
20260505095537 54 142 0.0 0.0 0.00 0.00 0.00 87 1014.8
20260505095040 54 146 0.0 2.0 0.00 0.00 0.00 87 1014.8
20260505094539 54 146 0.0 3.0 0.00 0.00 0.00 87 1014.8
20260505094035 54 154 0.0 2.0 0.00 0.00 0.00 87 1014.8
20260505093535 54 149 1.0 2.0 0.00 0.00 0.00 87 1014.7
20260505093035 54 160 0.0 2.0 0.00 0.00 0.00 87 1014.7
20260505092537 54 158 0.0 3.0 0.00 0.00 0.00 87 1014.7
20260505092035 54 191 0.0 2.0 0.00 0.00 0.00 87 1014.7
20260505091536 54 199 0.0 3.0 0.00 0.00 0.00 87 1014.7
20260505091034 54 143 1.0 3.0 0.00 0.00 0.00 87 1014.7
20260505090533 54 172 0.0 1.0 0.00 0.00 0.00 87 1014.7
20260505090032 54 214 0.0 2.0 0.00 0.00 0.00 87 1014.6
20260505085532 54 211 0.0 2.0 0.00 0.00 0.00 87 1014.6
20260505085033 54 150 0.0 1.0 0.00 0.00 0.00 87 1014.6
20260505084531 54 151 0.0 0.0 0.00 0.00 0.00 87 1014.6
20260505084030 54 151 0.0 1.0 0.00 0.00 0.00 87 1014.6
20260505083530 54 161 0.0 3.0 0.00 0.00 0.00 87 1014.7
20260505083030 54 174 1.0 3.0 0.00 0.00 0.00 87 1014.7
20260505082533 54 181 1.0 3.0 0.00 0.00 0.00 87 1014.6
20260505082030 54 190 0.0 2.0 0.00 0.00 0.00 87 1014.7
20260505081530 54 148 0.0 2.0 0.00 0.00 0.00 87 1014.6
20260505081030 54 177 0.0 1.0 0.00 0.00 0.00 87 1014.7
20260505080529 54 214 0.0 2.0 0.00 0.00 0.00 87 1014.7
20260505080129 53 216 0.0 2.0 0.00 0.00 0.00 87 1014.7
20260505075527 53 145 0.0 2.0 0.00 0.00 0.00 87 1014.7
20260505075027 53 152 0.0 2.0 0.00 0.00 0.00 87 1014.7
20260505074529 53 155 0.0 1.0 0.00 0.00 0.00 87 1014.6
20260505074026 53 207 0.0 1.0 0.00 0.00 0.00 87 1014.6
20260505073530 53 151 0.0 2.0 0.00 0.00 0.00 87 1014.6
20260505073026 53 177 0.0 2.0 0.00 0.00 0.00 87 1014.6
20260505072525 53 150 0.0 4.0 0.00 0.00 0.00 88 1014.5
20260505072024 53 169 0.0 3.0 0.00 0.00 0.00 88 1014.5
20260505071530 53 198 1.0 3.0 0.00 0.00 0.00 88 1014.5
20260505071024 53 200 1.0 2.0 0.00 0.00 0.00 88 1014.5
20260505070524 53 124 1.0 2.0 0.00 0.00 0.00 89 1014.5
20260505070026 52 149 0.0 2.0 0.00 0.00 0.00 89 1014.5
20260505065523 52 158 1.0 2.0 0.00 0.00 0.00 89 1014.5
20260505065019 52 146 0.0 2.0 0.00 0.00 0.00 89 1014.5
20260505064519 52 162 0.0 2.0 0.00 0.00 0.00 89 1014.5
20260505064019 52 146 0.0 3.0 0.00 0.00 0.00 89 1014.4
20260505063519 52 149 0.0 3.0 0.00 0.00 0.00 89 1014.4
20260505063018 52 147 0.0 3.0 0.00 0.00 0.00 89 1014.4
20260505062518 52 136 1.0 3.0 0.00 0.00 0.00 90 1014.4
20260505062018 52 147 0.0 2.0 0.00 0.00 0.00 90 1014.4
20260505061519 52 158 1.0 2.0 0.00 0.00 0.00 90 1014.5
20260505061023 51 147 0.0 2.0 0.00 0.00 0.00 91 1014.5
20260505060518 51 150 0.0 2.0 0.00 0.00 0.00 91 1014.4
20260505060034 51 200 0.0 1.0 0.00 0.00 0.00 91 1014.4
20260505055520 51 153 0.0 1.0 0.00 0.00 0.00 91 1014.3
20260505055015 51 156 0.0 0.0 0.00 0.00 0.00 91 1014.3
20260505054517 51 156 0.0 0.0 0.00 0.00 0.00 91 1014.2
20260505054016 51 156 0.0 0.0 0.00 0.00 0.00 91 1014.3
20260505053515 51 157 0.0 0.0 0.00 0.00 0.00 90 1014.2
20260505053016 51 157 0.0 0.0 0.00 0.00 0.00 89 1014.2
20260505052515 52 157 0.0 0.0 0.00 0.00 0.00 88 1014.2
20260505052015 52 157 0.0 0.0 0.00 0.00 0.00 88 1014.2
20260505051521 52 157 0.0 0.0 0.00 0.00 0.00 87 1014.1
20260505051015 53 157 0.0 0.0 0.00 0.00 0.00 87 1014.1
20260505050515 53 157 0.0 0.0 0.00 0.00 0.00 86 1014.0
20260505041518 55 205 0.0 0.0 0.00 0.00 0.00 84 1013.3
20260505041015 56 205 0.0 0.0 0.00 0.00 0.00 84 1013.3
20260505040511 56 205 0.0 0.0 0.00 0.00 0.00 83 1013.2
20260505040012 56 205 0.0 0.0 0.00 0.00 0.00 83 1013.2
20260505035511 57 147 0.0 0.0 0.00 0.00 0.00 82 1013.1
20260505035011 57 147 0.0 1.0 0.00 0.00 0.00 82 1013.0
20260505034511 57 147 0.0 1.0 0.00 0.00 0.00 81 1012.8
20260505034010 58 198 0.0 2.0 0.00 0.00 0.00 80 1012.8
20260505033512 59 165 0.0 2.0 0.00 0.00 0.00 80 1012.7
20260505033013 59 153 0.0 1.0 0.00 0.00 0.00 79 1012.6
20260505032510 59 168 0.0 1.0 0.00 0.00 0.00 79 1012.6
20260505032009 60 141 0.0 2.0 0.00 0.00 0.00 78 1012.6
20260505031509 60 141 0.0 3.0 0.00 0.00 0.00 78 1012.4
20260505031009 60 141 0.0 3.0 0.00 0.00 0.00 77 1012.3
20260505030509 61 148 0.0 3.0 0.00 0.00 0.00 77 1012.2
20260505030008 61 153 1.0 3.0 0.00 0.00 0.00 76 1012.1
20260505025512 61 147 0.0 3.0 0.00 0.00 0.00 76 1012.0
20260505025006 62 127 0.0 4.0 0.00 0.00 0.00 76 1011.9
20260505024510 62 13 0.0 4.0 0.00 0.00 0.00 75 1011.8
20260505024007 62 146 0.0 2.0 0.00 0.00 0.00 76 1011.8
20260505023506 62 155 0.0 2.0 0.00 0.00 0.00 75 1011.7
20260505023017 63 209 0.0 3.0 0.00 0.00 0.00 74 1011.7
20260505022505 63 131 1.0 4.0 0.00 0.00 0.00 74 1011.7
20260505022008 63 223 0.0 4.0 0.00 0.00 0.00 74 1011.7
20260505021510 63 158 0.0 6.0 0.00 0.00 0.00 73 1011.6
20260505021006 64 179 1.0 8.0 0.00 0.00 0.00 73 1011.5
20260505020506 64 158 2.0 9.0 0.00 0.00 0.00 73 1011.4
20260505020006 64 156 3.0 9.0 0.00 0.00 0.00 73 1011.4
20260505015503 64 195 2.0 8.0 0.00 0.00 0.00 72 1011.4
20260505015004 64 182 5.0 11.0 0.00 0.00 0.00 72 1011.4
20260505014511 65 198 5.0 11.0 0.00 0.00 0.00 72 1011.4
20260505014006 65 184 5.0 13.0 0.00 0.00 0.00 72 1011.4
20260505013502 65 196 6.0 15.0 0.00 0.00 0.00 70 1011.5
20260505013003 66 172 6.0 12.0 0.00 0.00 0.00 70 1011.4
20260505012503 66 176 6.0 11.0 0.00 0.00 0.00 71 1011.5
20260505012002 67 170 5.0 11.0 0.00 0.00 0.00 69 1011.5
20260505011501 67 179 6.0 10.0 0.00 0.00 0.00 69 1011.6
20260505011001 67 158 4.0 11.0 0.00 0.00 0.00 70 1011.5
20260505010503 67 143 6.0 13.0 0.00 0.00 0.00 70 1011.5
20260505010115 67 174 5.0 13.0 0.00 0.00 0.00 70 1011.5
20260505005600 68 150 7.0 13.0 0.00 0.00 0.00 70 1011.5
20260505005100 68 140 6.0 12.0 0.00 0.00 0.00 68 1011.5
20260505004600 68 145 7.0 13.0 0.00 0.00 0.00 69 1011.4
20260505004059 68 172 4.0 13.0 0.00 0.00 0.00 69 1011.4
20260505003603 68 144 6.0 14.0 0.00 0.00 0.00 70 1011.4
20260505003105 69 176 4.0 14.0 0.00 0.00 0.00 68 1011.5
20260505002601 69 193 8.0 14.0 0.00 0.00 0.00 68 1011.4
20260505002059 70 155 5.0 12.0 0.00 0.00 0.00 67 1011.4
20260505001559 70 188 6.0 10.0 0.00 0.00 0.00 68 1011.4
20260505001058 70 175 6.0 11.0 0.00 0.00 0.00 65 1011.4
20260505000559 71 163 5.0 11.0 0.00 0.00 0.00 65 1011.5
20260505000107 72 177 2.0 8.0 0.00 0.00 0.00 66 1011.5
20260504235557 72 120 1.0 4.0 0.00 0.00 0.00 67 1011.4
20260504235100 72 142 0.0 4.0 0.00 0.00 0.00 69 1011.4
20260504234557 72 15 0.0 4.0 0.00 0.00 0.00 66 1011.5
20260504234100 72 322 1.0 4.0 0.00 0.00 0.00 68 1011.4
20260504233556 71 145 2.0 6.0 0.00 0.00 0.00 69 1011.4
20260504233105 71 207 2.0 6.0 0.00 0.00 0.00 67 1011.5
20260504232556 71 167 2.0 5.0 0.00 0.00 0.00 67 1011.5
20260504232055 71 205 0.0 5.0 0.00 0.00 0.00 68 1011.6
20260504231556 71 325 2.0 5.0 0.00 0.00 0.00 68 1011.6
20260504231055 71 359 0.0 3.0 0.00 0.00 0.00 68 1011.7